Weather History for Parsons, KS

Change the Weather History Date:

Tuesday, February 19, 2013

  Actual Average Record
Temperature  
Mean Temperature 32 °F -  
Max Temperature 45 °F 49 °F 75 °F (2011)
Min Temperature 18 °F 26 °F -3 °F (1978)
Degree Days  
Heating Degree Days 34    
Moisture  
Dew Point 15 °F    
Average Humidity 58    
Maximum Humidity 89    
Minimum Humidity 25    
Precipitation  
Precipitation 0.00 in - - ()
Sea Level Pressure  
Sea Level Pressure 30.29 in    
Wind  
Wind Speed 3 mph (NNW)    
Max Wind Speed 14 mph    
Max Gust Speed 23 mph    
Visibility 10 miles    
Events      
Averages and records for this station are not official NWS values.
T = Trace of Precipitation, MM = Missing Value Source: NWS Daily Summary

Daily Weather History Graph

Daily Weather History Graph

Search for Another Location

Airport:

Trip Planner

Search our weather history database for the weather conditions in past years. The results will help you decide how hot, cold, wet, or windy it might be!

Date:

Astronomy

Feb. 19, 2013 Rise Set
Actual Time 7:05 AM CST 6:06 PM CST
Civil Twilight 6:39 AM CST 6:32 PM CST
Nautical Twilight 6:09 AM CST 7:03 PM CST
Astronomical Twilight 5:38 AM CST 7:33 PM CST
Moon 12:42 PM CST (2/19) 2:34 AM CST (2/19)
Length of Visible Light 11h 53m
Length of Day
11h 00m
Waxing Gibbous, 67% of the Moon is Illuminated
Feb 19
Waxing Gibbous
Feb 25
Full
Mar 4
Last Quarter
Mar 11
New
Mar 19
First Quarter

Hourly Weather History & Observations

Time (CST) Temp. Windchill Dew Point Humidity Pressure Visibility Wind Dir Wind Speed Gust Speed Precip Events Conditions
12:52 AM 21.9 °F - 17.1 °F 82% 30.19 in 10.0 mi Calm Calm - N/A   Clear
1:52 AM 19.9 °F - 16.0 °F 85% 30.20 in 10.0 mi Calm Calm - N/A   Clear
2:52 AM 19.9 °F - 17.1 °F 89% 30.19 in 10.0 mi Calm Calm - N/A   Clear
3:52 AM 18.0 °F - 14.0 °F 84% 30.20 in 10.0 mi Calm Calm - N/A   Clear
4:52 AM 18.0 °F - 14.0 °F 84% 30.22 in 10.0 mi Calm Calm - N/A   Clear
5:52 AM 19.9 °F 14.9 °F 15.1 °F 81% 30.25 in 10.0 mi NNW 3.5 mph - N/A   Clear
6:52 AM 18.0 °F - 14.0 °F 84% 30.27 in 10.0 mi Calm Calm - N/A   Clear
7:52 AM 25.0 °F 20.7 °F 19.0 °F 78% 30.30 in 10.0 mi NNW 3.5 mph - N/A   Clear
8:52 AM 32.0 °F 23.6 °F 21.0 °F 64% 30.33 in 10.0 mi North 10.4 mph - N/A   Clear
9:52 AM 35.1 °F 25.9 °F 17.1 °F 48% 30.35 in 10.0 mi North 13.8 mph 23.0 mph N/A   Clear
10:52 AM 37.9 °F 30.0 °F 15.1 °F 39% 30.38 in 10.0 mi NNW 12.7 mph - N/A   Clear
12:52 PM 42.1 °F 35.7 °F 16.0 °F 35% 30.36 in 10.0 mi NW 11.5 mph - N/A   Clear
1:52 PM 44.1 °F 37.4 °F 16.0 °F 32% 30.35 in 10.0 mi NW 13.8 mph 19.6 mph N/A   Clear
2:52 PM 45.0 °F 39.3 °F 15.1 °F 30% 30.32 in 10.0 mi NW 11.5 mph 18.4 mph N/A   Clear
3:52 PM 45.0 °F 41.2 °F 12.0 °F 26% 30.30 in 10.0 mi NW 6.9 mph - N/A   Clear
4:52 PM 45.0 °F 40.6 °F 10.9 °F 25% 30.29 in 10.0 mi North 8.1 mph - N/A   Clear
6:52 PM 33.1 °F - 10.9 °F 40% 30.31 in 10.0 mi Calm Calm - N/A   Clear
7:52 PM 30.0 °F 26.5 °F 12.9 °F 49% 30.30 in 10.0 mi ENE 3.5 mph - N/A   Clear
8:52 PM 30.0 °F - 14.0 °F 51% 30.31 in 10.0 mi Calm Calm - N/A   Clear
9:52 PM 28.0 °F - 15.1 °F 58% 30.32 in 10.0 mi Calm Calm - N/A   Clear
10:52 PM 30.0 °F 26.5 °F 14.0 °F 51% 30.32 in 10.0 mi NE 3.5 mph - N/A   Clear
11:52 PM 28.9 °F - 12.9 °F 51% 30.34 in 10.0 mi Calm Calm - N/A   Clear